Year,Month,Day,Hour,Minute,Value (Times are PST for temperature in C)
2006,12,11,00,00,7.50
2006,12,11,00,01,7.50
2006,12,11,00,02,7.50
2006,12,11,00,03,7.50
2006,12,11,00,04,7.50
2006,12,11,00,05,7.50
2006,12,11,00,06,7.50
2006,12,11,00,07,7.50
2006,12,11,00,08,7.60
2006,12,11,00,09,7.60
2006,12,11,00,10,7.60
2006,12,11,00,11,7.60
2006,12,11,00,12,7.60
2006,12,11,00,13,7.60
2006,12,11,00,14,7.60
2006,12,11,00,15,7.60
2006,12,11,00,16,7.60
2006,12,11,00,17,7.60
2006,12,11,00,18,7.60
2006,12,11,00,19,7.60
2006,12,11,00,20,7.70
2006,12,11,00,21,7.70
2006,12,11,00,22,7.70
2006,12,11,00,23,7.70
2006,12,11,00,24,7.70
2006,12,11,00,25,7.70
2006,12,11,00,26,7.70
2006,12,11,00,27,7.70
2006,12,11,00,28,7.70
2006,12,11,00,29,7.70
2006,12,11,00,30,7.70
2006,12,11,00,31,7.70
2006,12,11,00,32,7.70
2006,12,11,00,33,7.70
2006,12,11,00,34,7.70
2006,12,11,00,35,7.70
2006,12,11,00,36,7.70
2006,12,11,00,37,7.70
2006,12,11,00,38,7.70
2006,12,11,00,39,7.70
2006,12,11,00,40,7.70
2006,12,11,00,41,7.70
2006,12,11,00,42,7.70
2006,12,11,00,43,7.70
2006,12,11,00,44,7.70
2006,12,11,00,45,7.70
2006,12,11,00,46,7.70
2006,12,11,00,47,7.70
2006,12,11,00,48,7.70
2006,12,11,00,49,7.70
2006,12,11,00,50,7.70
2006,12,11,00,51,7.70
2006,12,11,00,52,7.70
2006,12,11,00,53,7.70
2006,12,11,00,54,7.70
2006,12,11,00,55,7.70
2006,12,11,00,56,7.70
2006,12,11,00,57,7.60
2006,12,11,00,58,7.60
2006,12,11,00,59,7.60
2006,12,11,01,00,7.60
2006,12,11,01,01,7.60
2006,12,11,01,02,7.60
2006,12,11,01,03,7.60
2006,12,11,01,04,7.60
2006,12,11,01,05,7.60
2006,12,11,01,06,7.60
2006,12,11,01,07,7.60
2006,12,11,01,08,7.60
2006,12,11,01,09,7.60
2006,12,11,01,10,7.60
2006,12,11,01,11,7.60
2006,12,11,01,12,7.60
2006,12,11,01,13,7.60
2006,12,11,01,14,7.70
2006,12,11,01,15,7.70
2006,12,11,01,16,7.70
2006,12,11,01,17,7.70
2006,12,11,01,18,7.70
2006,12,11,01,19,7.70
2006,12,11,01,20,7.70
2006,12,11,01,21,7.70
2006,12,11,01,22,7.80
2006,12,11,01,23,7.80
2006,12,11,01,24,7.80
2006,12,11,01,25,7.80
2006,12,11,01,26,7.80
2006,12,11,01,27,7.80
2006,12,11,01,28,7.80
2006,12,11,01,29,7.80
2006,12,11,01,30,7.80
2006,12,11,01,31,7.80
2006,12,11,01,32,7.80
2006,12,11,01,33,7.80
2006,12,11,01,34,7.80
2006,12,11,01,35,7.80
2006,12,11,01,36,7.80
2006,12,11,01,37,7.80
2006,12,11,01,38,7.80
2006,12,11,01,39,7.80
2006,12,11,01,40,7.90
2006,12,11,01,41,7.90
2006,12,11,01,42,8.00
2006,12,11,01,43,8.00
2006,12,11,01,44,8.10
2006,12,11,01,45,8.20
2006,12,11,01,46,8.20
2006,12,11,01,47,8.30
2006,12,11,01,48,8.30
2006,12,11,01,49,8.40
2006,12,11,01,50,8.50
2006,12,11,01,51,8.50
2006,12,11,01,52,8.50
2006,12,11,01,53,8.50
2006,12,11,01,54,8.50
2006,12,11,01,55,8.50
2006,12,11,01,56,8.50
2006,12,11,01,57,8.50
2006,12,11,01,58,8.50
2006,12,11,01,59,8.50
2006,12,11,02,00,8.50
2006,12,11,02,01,8.60
2006,12,11,02,02,8.60
2006,12,11,02,03,8.60
2006,12,11,02,04,8.60
2006,12,11,02,05,8.60
2006,12,11,02,06,8.60
2006,12,11,02,07,8.60
2006,12,11,02,08,8.60
2006,12,11,02,09,8.60
2006,12,11,02,10,8.60
2006,12,11,02,11,8.60
2006,12,11,02,12,8.60
2006,12,11,02,13,8.60
2006,12,11,02,14,8.60
2006,12,11,02,15,8.60
2006,12,11,02,16,8.60
2006,12,11,02,17,8.60
2006,12,11,02,18,8.60
2006,12,11,02,19,8.60
2006,12,11,02,20,8.60
2006,12,11,02,21,8.60
2006,12,11,02,22,8.60
2006,12,11,02,23,8.70
2006,12,11,02,24,8.70
2006,12,11,02,25,8.70
2006,12,11,02,26,8.70
2006,12,11,02,27,8.70
2006,12,11,02,28,8.70
2006,12,11,02,29,8.70
2006,12,11,02,30,8.70
2006,12,11,02,31,8.60
2006,12,11,02,32,8.60
2006,12,11,02,33,8.60
2006,12,11,02,34,8.60
2006,12,11,02,35,8.60
2006,12,11,02,36,8.60
2006,12,11,02,37,8.60
2006,12,11,02,38,8.60
2006,12,11,02,39,8.50
2006,12,11,02,40,8.50
2006,12,11,02,41,8.50
2006,12,11,02,42,8.50
2006,12,11,02,43,8.50
2006,12,11,02,44,8.50
2006,12,11,02,45,8.60
2006,12,11,02,46,8.60
2006,12,11,02,47,8.60
2006,12,11,02,48,8.60
2006,12,11,02,49,8.60
2006,12,11,02,50,8.60
2006,12,11,02,51,8.60
2006,12,11,02,52,8.60
2006,12,11,02,53,8.60
2006,12,11,02,54,8.60
2006,12,11,02,55,8.60
2006,12,11,02,56,8.60
2006,12,11,02,57,8.60
2006,12,11,02,58,8.60
2006,12,11,02,59,8.50
2006,12,11,03,00,8.50
2006,12,11,03,01,8.50
2006,12,11,03,02,8.50
2006,12,11,03,03,8.50
2006,12,11,03,04,8.50
2006,12,11,03,05,8.40
2006,12,11,03,06,8.40
2006,12,11,03,07,8.40
2006,12,11,03,08,8.40
2006,12,11,03,09,8.40
2006,12,11,03,10,8.40
2006,12,11,03,11,8.40
2006,12,11,03,12,8.50
2006,12,11,03,13,8.50
2006,12,11,03,14,8.50
2006,12,11,03,15,8.50
2006,12,11,03,16,8.50
2006,12,11,03,17,8.50
2006,12,11,03,18,8.50
2006,12,11,03,19,8.50
2006,12,11,03,20,8.60
2006,12,11,03,21,8.60
2006,12,11,03,22,8.60
2006,12,11,03,23,8.60
2006,12,11,03,24,8.60
2006,12,11,03,25,8.60
2006,12,11,03,26,8.60
2006,12,11,03,27,8.60
2006,12,11,03,28,8.60
2006,12,11,03,29,8.60
2006,12,11,03,30,8.60
2006,12,11,03,31,8.60
2006,12,11,03,32,8.60
2006,12,11,03,33,8.60
2006,12,11,03,34,8.60
2006,12,11,03,35,8.60
2006,12,11,03,36,8.60
2006,12,11,03,37,8.60
2006,12,11,03,38,8.60
2006,12,11,03,39,8.60
2006,12,11,03,40,8.60
2006,12,11,03,41,8.60
2006,12,11,03,42,8.60
2006,12,11,03,43,8.60
2006,12,11,03,44,8.60
2006,12,11,03,45,8.60
2006,12,11,03,46,8.60
2006,12,11,03,47,8.60
2006,12,11,03,48,8.60
2006,12,11,03,49,8.70
2006,12,11,03,50,8.70
2006,12,11,03,51,8.70
2006,12,11,03,52,8.70
2006,12,11,03,53,8.70
2006,12,11,03,54,8.70
2006,12,11,03,55,8.70
2006,12,11,03,56,8.70
2006,12,11,03,57,8.70
2006,12,11,03,58,8.70
2006,12,11,03,59,8.70
2006,12,11,04,00,8.60
2006,12,11,04,01,8.60
2006,12,11,04,02,8.60
2006,12,11,04,03,8.60
2006,12,11,04,04,8.60
2006,12,11,04,05,8.60
2006,12,11,04,06,8.50
2006,12,11,04,07,8.50
2006,12,11,04,08,8.50
2006,12,11,04,09,8.50
2006,12,11,04,10,8.50
2006,12,11,04,11,8.50
2006,12,11,04,12,8.50
2006,12,11,04,13,8.40
2006,12,11,04,14,8.40
2006,12,11,04,15,8.40
2006,12,11,04,16,8.40
2006,12,11,04,17,8.40
2006,12,11,04,18,8.40
2006,12,11,04,19,8.40
2006,12,11,04,20,8.40
2006,12,11,04,21,8.40
2006,12,11,04,22,8.40
2006,12,11,04,23,8.40
2006,12,11,04,24,8.40
2006,12,11,04,25,8.40
2006,12,11,04,26,8.40
2006,12,11,04,27,8.40
2006,12,11,04,28,8.40
2006,12,11,04,29,8.40
2006,12,11,04,30,8.40
2006,12,11,04,31,8.40
2006,12,11,04,32,8.40
2006,12,11,04,33,8.40
2006,12,11,04,34,8.30
2006,12,11,04,35,8.30
2006,12,11,04,36,8.30
2006,12,11,04,37,8.30
2006,12,11,04,38,8.30
2006,12,11,04,39,8.30
2006,12,11,04,40,8.30
2006,12,11,04,41,8.30
2006,12,11,04,42,8.30
2006,12,11,04,43,8.30
2006,12,11,04,44,8.20
2006,12,11,04,45,8.30
2006,12,11,04,46,8.30
2006,12,11,04,47,8.30
2006,12,11,04,48,8.30
2006,12,11,04,49,8.30
2006,12,11,04,50,8.30
2006,12,11,04,51,8.30
2006,12,11,04,52,8.30
2006,12,11,04,53,8.30
2006,12,11,04,54,8.30
2006,12,11,04,55,8.30
2006,12,11,04,56,8.30
2006,12,11,04,57,8.30
2006,12,11,04,58,8.30
2006,12,11,04,59,8.30
2006,12,11,05,00,8.30
2006,12,11,05,01,8.30
2006,12,11,05,02,8.30
2006,12,11,05,03,8.30
2006,12,11,05,04,8.30
2006,12,11,05,05,8.30
2006,12,11,05,06,8.30
2006,12,11,05,07,8.30
2006,12,11,05,08,8.30
2006,12,11,05,09,8.30
2006,12,11,05,10,8.30
2006,12,11,05,11,8.30
2006,12,11,05,12,8.30
2006,12,11,05,13,8.30
2006,12,11,05,14,8.30
2006,12,11,05,15,8.30
2006,12,11,05,16,8.30
2006,12,11,05,17,8.30
2006,12,11,05,18,8.30
2006,12,11,05,19,8.30
2006,12,11,05,20,8.30
2006,12,11,05,21,8.30
2006,12,11,05,22,8.30
2006,12,11,05,23,8.20
2006,12,11,05,24,8.20
2006,12,11,05,25,8.20
2006,12,11,05,26,8.20
2006,12,11,05,27,8.20
2006,12,11,05,28,8.20
2006,12,11,05,29,8.20
2006,12,11,05,30,8.20
2006,12,11,05,31,8.20
2006,12,11,05,32,8.20
2006,12,11,05,33,8.20
2006,12,11,05,34,8.20
2006,12,11,05,35,8.20
2006,12,11,05,36,8.20
2006,12,11,05,37,8.20
2006,12,11,05,38,8.20
2006,12,11,05,39,8.20
2006,12,11,05,40,8.20
2006,12,11,05,41,8.20
2006,12,11,05,42,8.20
2006,12,11,05,43,8.20
2006,12,11,05,44,8.20
2006,12,11,05,45,8.20
2006,12,11,05,46,8.20
2006,12,11,05,47,8.20
2006,12,11,05,48,8.20
2006,12,11,05,49,8.20
2006,12,11,05,50,8.20
2006,12,11,05,51,8.20
2006,12,11,05,52,8.20
2006,12,11,05,53,8.20
2006,12,11,05,54,8.20
2006,12,11,05,55,8.20
2006,12,11,05,56,8.20
2006,12,11,05,57,8.20
2006,12,11,05,58,8.20
2006,12,11,05,59,8.20
2006,12,11,06,00,8.20
2006,12,11,06,01,8.20
2006,12,11,06,02,8.20
2006,12,11,06,03,8.20
2006,12,11,06,04,8.20
2006,12,11,06,05,8.20
2006,12,11,06,06,8.20
2006,12,11,06,07,8.20
2006,12,11,06,08,8.20
2006,12,11,06,09,8.20
2006,12,11,06,10,8.20
2006,12,11,06,11,8.20
2006,12,11,06,12,8.20
2006,12,11,06,13,8.20
2006,12,11,06,14,8.20
2006,12,11,06,15,8.20
2006,12,11,06,16,8.20
2006,12,11,06,17,8.20
2006,12,11,06,18,8.20
2006,12,11,06,19,8.20
2006,12,11,06,20,8.20
2006,12,11,06,21,8.30
2006,12,11,06,22,8.30
2006,12,11,06,23,8.30
2006,12,11,06,24,8.30
2006,12,11,06,25,8.30
2006,12,11,06,26,8.30
2006,12,11,06,27,8.30
2006,12,11,06,28,8.30
2006,12,11,06,29,8.30
2006,12,11,06,30,8.40
2006,12,11,06,31,8.40
2006,12,11,06,32,8.40
2006,12,11,06,33,8.50
2006,12,11,06,34,8.50
2006,12,11,06,35,8.50
2006,12,11,06,36,8.50
2006,12,11,06,37,8.50
2006,12,11,06,38,8.50
2006,12,11,06,39,8.50
2006,12,11,06,40,8.50
2006,12,11,06,41,8.50
2006,12,11,06,42,8.50
2006,12,11,06,43,8.50
2006,12,11,06,44,8.50
2006,12,11,06,45,8.50
2006,12,11,06,46,8.50
2006,12,11,06,47,8.50
2006,12,11,06,48,8.50
2006,12,11,06,49,8.50
2006,12,11,06,50,8.50
2006,12,11,06,51,8.50
2006,12,11,06,52,8.50
2006,12,11,06,53,8.50
2006,12,11,06,54,8.50
2006,12,11,06,55,8.50
2006,12,11,06,56,8.50
2006,12,11,06,57,8.50
2006,12,11,06,58,8.50
2006,12,11,06,59,8.50
2006,12,11,07,00,8.50
2006,12,11,07,01,8.50
2006,12,11,07,02,8.50
2006,12,11,07,03,8.50
2006,12,11,07,04,8.50
2006,12,11,07,05,8.50
2006,12,11,07,06,8.50
2006,12,11,07,07,8.50
2006,12,11,07,08,8.50
2006,12,11,07,09,8.60
2006,12,11,07,10,8.60
2006,12,11,07,11,8.60
2006,12,11,07,12,8.60
2006,12,11,07,13,8.60
2006,12,11,07,14,8.60
2006,12,11,07,15,8.60
2006,12,11,07,16,8.60
2006,12,11,07,17,8.60
2006,12,11,07,18,8.60
2006,12,11,07,19,8.60
2006,12,11,07,20,8.60
2006,12,11,07,21,8.60
2006,12,11,07,22,8.60
2006,12,11,07,23,8.60
2006,12,11,07,24,8.60
2006,12,11,07,25,8.70
2006,12,11,07,26,8.70
2006,12,11,07,27,8.70
2006,12,11,07,28,8.70
2006,12,11,07,29,8.70
2006,12,11,07,30,8.70
2006,12,11,07,31,8.70
2006,12,11,07,32,8.70
2006,12,11,07,33,8.70
2006,12,11,07,34,8.70
2006,12,11,07,35,8.70
2006,12,11,07,36,8.70
2006,12,11,07,37,8.70
2006,12,11,07,38,8.70
2006,12,11,07,39,8.70
2006,12,11,07,40,8.70
2006,12,11,07,41,8.70
2006,12,11,07,42,8.70
2006,12,11,07,43,8.70
2006,12,11,07,44,8.70
2006,12,11,07,45,8.70
2006,12,11,07,46,8.70
2006,12,11,07,47,8.70
2006,12,11,07,48,8.70
2006,12,11,07,49,8.70
2006,12,11,07,50,8.70
2006,12,11,07,51,8.70
2006,12,11,07,52,8.70
2006,12,11,07,53,8.80
2006,12,11,07,54,8.80
2006,12,11,07,55,8.80
2006,12,11,07,56,8.80
2006,12,11,07,57,8.80
2006,12,11,07,58,8.90
2006,12,11,07,59,8.90
2006,12,11,08,00,8.90
2006,12,11,08,01,8.90
2006,12,11,08,02,8.90
2006,12,11,08,03,8.90
2006,12,11,08,04,8.90
2006,12,11,08,05,9.00
2006,12,11,08,06,9.00
2006,12,11,08,07,9.00
2006,12,11,08,08,9.00
2006,12,11,08,09,9.00
2006,12,11,08,10,9.00
2006,12,11,08,11,9.00
2006,12,11,08,12,9.00
2006,12,11,08,13,9.10
2006,12,11,08,14,9.10
2006,12,11,08,15,9.10
2006,12,11,08,16,9.10
2006,12,11,08,17,9.20
2006,12,11,08,18,9.20
2006,12,11,08,19,9.20
2006,12,11,08,20,9.20
2006,12,11,08,21,9.20
2006,12,11,08,22,9.20
2006,12,11,08,23,9.20
2006,12,11,08,24,9.20
2006,12,11,08,25,9.20
2006,12,11,08,26,9.30
2006,12,11,08,27,9.30
2006,12,11,08,28,9.30
2006,12,11,08,29,9.30
2006,12,11,08,30,9.30
2006,12,11,08,31,9.30
2006,12,11,08,32,9.30
2006,12,11,08,33,9.30
2006,12,11,08,34,9.30
2006,12,11,08,35,9.30
2006,12,11,08,36,9.30
2006,12,11,08,37,9.30
2006,12,11,08,38,9.30
2006,12,11,08,39,9.30
2006,12,11,08,40,9.20
2006,12,11,08,41,9.20
2006,12,11,08,42,9.20
2006,12,11,08,43,9.20
2006,12,11,08,44,9.20
2006,12,11,08,45,9.20
2006,12,11,08,46,9.20
2006,12,11,08,47,9.20
2006,12,11,08,48,9.20
2006,12,11,08,49,9.20
2006,12,11,08,50,9.20
2006,12,11,08,51,9.10
2006,12,11,08,52,9.10
2006,12,11,08,53,9.10
2006,12,11,08,54,9.10
2006,12,11,08,55,9.20
2006,12,11,08,56,9.20
2006,12,11,08,57,9.20
2006,12,11,08,58,9.20
2006,12,11,08,59,9.20
2006,12,11,09,00,9.20
2006,12,11,09,01,9.20
2006,12,11,09,02,9.20
2006,12,11,09,03,9.20
2006,12,11,09,04,9.20
2006,12,11,09,05,9.20
2006,12,11,09,06,9.20
2006,12,11,09,07,9.20
2006,12,11,09,08,9.20
2006,12,11,09,09,9.20
2006,12,11,09,10,9.20
2006,12,11,09,11,9.20
2006,12,11,09,12,9.20
2006,12,11,09,13,9.20
2006,12,11,09,14,9.20
2006,12,11,09,15,9.20
2006,12,11,09,16,9.20
2006,12,11,09,17,9.30
2006,12,11,09,18,9.30
2006,12,11,09,19,9.30
2006,12,11,09,20,9.40
2006,12,11,09,21,9.40
2006,12,11,09,22,9.40
2006,12,11,09,23,9.40
2006,12,11,09,24,9.40
2006,12,11,09,25,9.40
2006,12,11,09,26,9.40
2006,12,11,09,27,9.40
2006,12,11,09,28,9.40
2006,12,11,09,29,9.40
2006,12,11,09,30,9.40
2006,12,11,09,31,9.40
2006,12,11,09,32,9.40
2006,12,11,09,33,9.40
2006,12,11,09,34,9.40
2006,12,11,09,35,9.40
2006,12,11,09,36,9.50
2006,12,11,09,37,9.50
2006,12,11,09,38,9.50
2006,12,11,09,39,9.50
2006,12,11,09,40,9.50
2006,12,11,09,41,9.50
2006,12,11,09,42,9.50
2006,12,11,09,43,9.50
2006,12,11,09,44,9.50
2006,12,11,09,45,9.50
2006,12,11,09,46,9.40
2006,12,11,09,47,9.40
2006,12,11,09,48,9.40
2006,12,11,09,49,9.30
2006,12,11,09,50,9.30
2006,12,11,09,51,9.30
2006,12,11,09,52,9.30
2006,12,11,09,53,9.30
2006,12,11,09,54,9.30
2006,12,11,09,55,9.30
2006,12,11,09,56,9.30
2006,12,11,09,57,9.40
2006,12,11,09,58,9.40
2006,12,11,09,59,9.40
2006,12,11,10,00,9.40
2006,12,11,10,01,9.40
2006,12,11,10,02,9.40
2006,12,11,10,03,9.50
2006,12,11,10,04,9.50
2006,12,11,10,05,9.50
2006,12,11,10,06,9.50
2006,12,11,10,07,9.50
2006,12,11,10,08,9.50
2006,12,11,10,09,9.50
2006,12,11,10,10,9.50
2006,12,11,10,11,9.50
2006,12,11,10,12,9.50
2006,12,11,10,13,9.50
2006,12,11,10,14,9.50
2006,12,11,10,15,9.50
2006,12,11,10,16,9.50
2006,12,11,10,17,9.50
2006,12,11,10,18,9.50
2006,12,11,10,19,9.50
2006,12,11,10,20,9.50
2006,12,11,10,21,9.50
2006,12,11,10,22,9.50
2006,12,11,10,23,9.50
2006,12,11,10,24,9.50
2006,12,11,10,25,9.50
2006,12,11,10,26,9.50
2006,12,11,10,27,9.50
2006,12,11,10,28,9.50
2006,12,11,10,29,9.50
2006,12,11,10,30,9.60
2006,12,11,10,31,9.60
2006,12,11,10,32,9.60
2006,12,11,10,33,9.60
2006,12,11,10,34,9.60
2006,12,11,10,35,9.60
2006,12,11,10,36,9.60
2006,12,11,10,37,9.60
2006,12,11,10,38,9.60
2006,12,11,10,39,9.50
2006,12,11,10,40,9.50
2006,12,11,10,41,9.50
2006,12,11,10,42,9.50
2006,12,11,10,43,9.50
2006,12,11,10,44,9.50
2006,12,11,10,45,9.50
2006,12,11,10,46,9.50
2006,12,11,10,47,9.50
2006,12,11,10,48,9.50
2006,12,11,10,49,9.50
2006,12,11,10,50,9.50
2006,12,11,10,51,9.50
2006,12,11,10,52,9.50
2006,12,11,10,53,9.50
2006,12,11,10,54,9.50
2006,12,11,10,55,9.50
2006,12,11,10,56,9.50
2006,12,11,10,57,9.50
2006,12,11,10,58,9.50
2006,12,11,10,59,9.50
2006,12,11,11,00,9.50
2006,12,11,11,01,9.50
2006,12,11,11,02,9.50
2006,12,11,11,03,9.40
2006,12,11,11,04,9.40
2006,12,11,11,05,9.40
2006,12,11,11,06,9.40
2006,12,11,11,07,9.40
2006,12,11,11,08,9.40
2006,12,11,11,09,9.40
2006,12,11,11,10,9.40
2006,12,11,11,11,9.40
2006,12,11,11,12,9.40
2006,12,11,11,13,9.40
2006,12,11,11,14,9.50
2006,12,11,11,15,9.50
2006,12,11,11,16,9.50
2006,12,11,11,17,9.40
2006,12,11,11,18,9.40
2006,12,11,11,19,9.40
2006,12,11,11,20,9.40
2006,12,11,11,21,9.40
2006,12,11,11,22,9.40
2006,12,11,11,23,9.40
2006,12,11,11,24,9.40
2006,12,11,11,25,9.40
2006,12,11,11,26,9.50
2006,12,11,11,27,9.50
2006,12,11,11,28,9.50
2006,12,11,11,29,9.50
2006,12,11,11,30,9.50
2006,12,11,11,31,9.50
2006,12,11,11,32,9.50
2006,12,11,11,33,9.60
2006,12,11,11,34,9.60
2006,12,11,11,35,9.60
2006,12,11,11,36,9.60
2006,12,11,11,37,9.60
2006,12,11,11,38,9.60
2006,12,11,11,39,9.60
2006,12,11,11,40,9.60
2006,12,11,11,41,9.60
2006,12,11,11,42,9.60
2006,12,11,11,43,9.60
2006,12,11,11,44,9.50
2006,12,11,11,45,9.50
2006,12,11,11,46,9.60
2006,12,11,11,47,9.60
2006,12,11,11,48,9.60
2006,12,11,11,49,9.60
2006,12,11,11,50,9.60
2006,12,11,11,51,9.60
2006,12,11,11,52,9.60
2006,12,11,11,53,9.60
2006,12,11,11,54,9.60
2006,12,11,11,55,9.70
2006,12,11,11,56,9.70
2006,12,11,11,57,9.70
2006,12,11,11,58,9.70
2006,12,11,11,59,9.80
2006,12,11,12,00,9.80
2006,12,11,12,01,9.80
2006,12,11,12,02,9.80
2006,12,11,12,03,9.90
2006,12,11,12,04,9.90
2006,12,11,12,05,9.90
2006,12,11,12,06,9.90
2006,12,11,12,07,9.90
2006,12,11,12,08,9.90
2006,12,11,12,09,9.90
2006,12,11,12,10,9.90
2006,12,11,12,11,9.90
2006,12,11,12,12,9.90
2006,12,11,12,13,9.90
2006,12,11,12,14,9.90
2006,12,11,12,15,9.90
2006,12,11,12,16,9.90
2006,12,11,12,17,9.90
2006,12,11,12,18,9.90
2006,12,11,12,19,9.90
2006,12,11,12,20,9.90
2006,12,11,12,21,9.90
2006,12,11,12,22,9.90
2006,12,11,12,23,9.90
2006,12,11,12,24,9.90
2006,12,11,12,25,10.00
2006,12,11,12,26,10.10
2006,12,11,12,27,10.10
2006,12,11,12,28,10.10
2006,12,11,12,29,10.10
2006,12,11,12,30,10.20
2006,12,11,12,31,10.20
2006,12,11,12,32,10.20
2006,12,11,12,33,10.20
2006,12,11,12,34,10.30
2006,12,11,12,35,10.30
2006,12,11,12,36,10.40
2006,12,11,12,37,10.40
2006,12,11,12,38,10.40
2006,12,11,12,39,10.40
2006,12,11,12,40,10.40
2006,12,11,12,41,10.40
2006,12,11,12,42,10.40
2006,12,11,12,43,10.60
2006,12,11,12,44,10.60
2006,12,11,12,45,10.60
2006,12,11,12,46,10.50
2006,12,11,12,47,10.50
2006,12,11,12,48,10.60
2006,12,11,12,49,10.60
2006,12,11,12,50,10.60
2006,12,11,12,51,10.60
2006,12,11,12,52,10.60
2006,12,11,12,53,10.60
2006,12,11,12,54,10.60
2006,12,11,12,55,10.60
2006,12,11,12,56,10.60
2006,12,11,12,57,10.60
2006,12,11,12,58,10.60
2006,12,11,12,59,10.60
2006,12,11,13,00,10.60
2006,12,11,13,01,10.60
2006,12,11,13,02,10.60
2006,12,11,13,03,10.60
2006,12,11,13,04,10.60
2006,12,11,13,05,10.60
2006,12,11,13,06,10.60
2006,12,11,13,07,10.60
2006,12,11,13,08,10.60
2006,12,11,13,09,10.60
2006,12,11,13,10,10.60
2006,12,11,13,11,10.60
2006,12,11,14,18,11.40
2006,12,11,14,19,11.40
2006,12,11,14,20,11.40
2006,12,11,14,21,11.40
2006,12,11,14,22,11.40
2006,12,11,14,23,11.50
2006,12,11,14,24,11.60
2006,12,11,14,25,11.60
2006,12,11,14,26,11.60
2006,12,11,14,27,11.70
2006,12,11,14,28,11.70
2006,12,11,14,29,11.60
2006,12,11,14,30,11.60
2006,12,11,14,31,11.60
2006,12,11,14,32,11.60
2006,12,11,14,33,11.60
2006,12,11,14,34,11.70
2006,12,11,14,35,11.70
2006,12,11,14,36,11.80
2006,12,11,14,37,11.80
2006,12,11,14,38,11.90
2006,12,11,14,39,11.90
2006,12,11,14,40,12.00
2006,12,11,14,41,12.00
2006,12,11,14,42,12.00
2006,12,11,14,43,12.10
2006,12,11,14,44,12.00
2006,12,11,14,45,12.00
2006,12,11,14,46,12.00
2006,12,11,14,47,12.00
2006,12,11,14,48,11.90
2006,12,11,14,49,11.90
2006,12,11,14,50,11.90
2006,12,11,14,51,11.90
2006,12,11,14,52,11.90
2006,12,11,14,53,11.90
2006,12,11,14,54,11.90
2006,12,11,14,55,11.90
2006,12,11,14,56,11.90
2006,12,11,14,57,12.00
2006,12,11,14,58,12.10
2006,12,11,14,59,12.10
2006,12,11,15,00,12.20
2006,12,11,15,01,12.20
2006,12,11,15,02,12.20
2006,12,11,15,03,12.30
2006,12,11,15,04,12.30
2006,12,11,15,05,12.30
2006,12,11,15,06,12.30
2006,12,11,15,07,12.30
2006,12,11,15,08,12.30
2006,12,11,15,09,12.30
2006,12,11,15,10,12.30
2006,12,11,15,11,12.20
2006,12,11,15,12,12.20
2006,12,11,15,13,12.20
2006,12,11,15,14,12.10
2006,12,11,15,15,12.10
2006,12,11,15,16,12.00
2006,12,11,15,17,11.90
2006,12,11,15,18,11.90
2006,12,11,15,19,11.90
2006,12,11,15,20,11.80
2006,12,11,15,21,11.80
2006,12,11,15,22,11.80
2006,12,11,15,23,11.80
2006,12,11,15,24,11.80
2006,12,11,15,25,11.70
2006,12,11,15,26,11.70
2006,12,11,15,27,11.70
2006,12,11,15,28,11.70
2006,12,11,15,29,11.60
2006,12,11,15,30,11.60
2006,12,11,15,31,11.60
2006,12,11,15,32,11.60
2006,12,11,15,33,11.60
2006,12,11,15,34,11.50
2006,12,11,15,35,11.40
2006,12,11,15,36,11.40
2006,12,11,15,37,11.40
2006,12,11,15,38,11.40
2006,12,11,15,39,11.40
2006,12,11,15,40,11.40
2006,12,11,15,41,11.30
2006,12,11,15,42,11.30
2006,12,11,15,43,11.20
2006,12,11,15,44,11.20
2006,12,11,15,45,11.20
2006,12,11,15,46,11.20
2006,12,11,15,47,11.10
2006,12,11,15,48,11.00
2006,12,11,15,49,10.90
2006,12,11,15,50,10.80
2006,12,11,15,51,10.70
2006,12,11,15,52,10.70
2006,12,11,15,53,10.70
2006,12,11,15,54,10.60
2006,12,11,15,55,10.60
2006,12,11,15,56,10.60
2006,12,11,15,57,10.60
2006,12,11,15,58,10.60
2006,12,11,15,59,10.60
2006,12,11,16,00,10.60
2006,12,11,16,01,10.60
2006,12,11,16,02,10.60
2006,12,11,16,03,10.50
2006,12,11,16,04,10.40
2006,12,11,16,05,10.40
2006,12,11,16,06,10.40
2006,12,11,16,07,10.40
2006,12,11,16,08,10.40
2006,12,11,16,09,10.40
2006,12,11,16,10,10.40
2006,12,11,16,11,10.40
2006,12,11,16,12,10.40
2006,12,11,16,13,10.40
2006,12,11,16,14,10.30
2006,12,11,16,15,10.30
2006,12,11,16,16,10.30
2006,12,11,16,17,10.30
2006,12,11,16,18,10.30
2006,12,11,16,19,10.30
2006,12,11,16,20,10.30
2006,12,11,16,21,10.30
2006,12,11,16,22,10.20
2006,12,11,16,23,10.20
2006,12,11,16,24,10.10
2006,12,11,16,25,10.10
2006,12,11,16,26,10.10
2006,12,11,16,27,10.10
2006,12,11,16,28,10.10
2006,12,11,16,29,10.10
2006,12,11,16,30,10.00
2006,12,11,16,31,9.90
2006,12,11,16,32,9.90
2006,12,11,16,33,9.90
2006,12,11,16,34,9.90
2006,12,11,16,35,9.90
2006,12,11,16,36,9.90
2006,12,11,16,37,9.90
2006,12,11,16,38,9.90
2006,12,11,16,39,9.90
2006,12,11,16,40,9.80
2006,12,11,16,41,9.80
2006,12,11,16,42,9.80
2006,12,11,16,43,9.70
2006,12,11,16,44,9.70
2006,12,11,16,45,9.70
2006,12,11,16,46,9.70
2006,12,11,16,47,9.60
2006,12,11,16,48,9.60
2006,12,11,16,49,9.50
2006,12,11,16,50,9.50
2006,12,11,16,51,9.50
2006,12,11,16,52,9.40
2006,12,11,16,53,9.40
2006,12,11,16,54,9.40
2006,12,11,16,55,9.30
2006,12,11,16,56,9.30
2006,12,11,16,57,9.30
2006,12,11,16,58,9.20
2006,12,11,16,59,9.20
2006,12,11,17,00,9.20
2006,12,11,17,01,9.20
2006,12,11,17,02,9.20
2006,12,11,17,03,9.20
2006,12,11,17,04,9.20
2006,12,11,17,05,9.20
2006,12,11,17,06,9.20
2006,12,11,17,07,9.30
2006,12,11,17,08,9.40
2006,12,11,17,09,9.50
2006,12,11,17,10,9.50
2006,12,11,17,11,9.60
2006,12,11,17,12,9.70
2006,12,11,17,13,9.70
2006,12,11,17,14,9.70
2006,12,11,17,15,9.70
2006,12,11,17,16,9.70
2006,12,11,17,17,9.70
2006,12,11,17,18,9.70
2006,12,11,17,19,9.70
2006,12,11,17,20,9.70
2006,12,11,17,21,9.70
2006,12,11,17,22,9.70
2006,12,11,17,23,9.70
2006,12,11,17,24,9.80
2006,12,11,17,25,9.80
2006,12,11,17,26,9.80
2006,12,11,17,27,9.80
2006,12,11,17,28,9.80
2006,12,11,17,29,9.80
2006,12,11,17,30,9.80
2006,12,11,17,31,9.80
2006,12,11,17,32,9.80
2006,12,11,17,33,9.80
2006,12,11,17,34,9.80
2006,12,11,17,35,9.90
2006,12,11,17,36,9.80
2006,12,11,17,37,9.80
2006,12,11,17,38,9.80
2006,12,11,17,39,9.70
2006,12,11,17,40,9.70
2006,12,11,17,41,9.70
2006,12,11,17,42,9.70
2006,12,11,17,43,9.70
2006,12,11,17,44,9.70
2006,12,11,17,45,9.70
2006,12,11,17,46,9.70
2006,12,11,17,47,9.70
2006,12,11,17,48,9.70
2006,12,11,17,49,9.70
2006,12,11,17,50,9.70
2006,12,11,17,51,9.70
2006,12,11,17,52,9.70
2006,12,11,17,53,9.70
2006,12,11,17,54,9.70
2006,12,11,17,55,9.70
2006,12,11,17,56,9.70
2006,12,11,17,57,9.70
2006,12,11,17,58,9.70
2006,12,11,17,59,9.70
2006,12,11,18,00,9.70
2006,12,11,18,01,9.70
2006,12,11,18,02,9.70
2006,12,11,18,03,9.70
2006,12,11,18,04,9.70
2006,12,11,18,05,9.70
2006,12,11,18,06,9.70
2006,12,11,18,07,9.60
2006,12,11,18,08,9.60
2006,12,11,18,09,9.60
2006,12,11,18,10,9.50
2006,12,11,18,11,9.50
2006,12,11,18,12,9.50
2006,12,11,18,13,9.40
2006,12,11,18,14,9.40
2006,12,11,18,15,9.40
2006,12,11,18,16,9.40
2006,12,11,18,17,9.40
2006,12,11,18,18,9.40
2006,12,11,18,19,9.40
2006,12,11,18,20,9.40
2006,12,11,18,21,9.40
2006,12,11,18,22,9.40
2006,12,11,18,23,9.40
2006,12,11,18,24,9.50
2006,12,11,18,25,9.50
2006,12,11,18,26,9.50
2006,12,11,18,27,9.50
2006,12,11,18,28,9.50
2006,12,11,18,29,9.50
2006,12,11,18,30,9.50
2006,12,11,18,31,9.50
2006,12,11,18,32,9.50
2006,12,11,18,33,9.50
2006,12,11,18,34,9.50
2006,12,11,18,35,9.50
2006,12,11,18,36,9.50
2006,12,11,18,37,9.50
2006,12,11,18,38,9.50
2006,12,11,18,39,9.50
2006,12,11,18,40,9.60
2006,12,11,18,41,9.60
2006,12,11,18,42,9.60
2006,12,11,18,43,9.70
2006,12,11,18,44,9.60
2006,12,11,18,45,9.60
2006,12,11,18,46,9.60
2006,12,11,18,47,9.60
2006,12,11,18,48,9.60
2006,12,11,18,49,9.70
2006,12,11,18,50,9.70
2006,12,11,18,51,9.70
2006,12,11,18,52,9.70
2006,12,11,18,53,9.70
2006,12,11,18,54,9.70
2006,12,11,18,55,9.70
2006,12,11,18,56,9.70
2006,12,11,18,57,9.70
2006,12,11,18,58,9.70
2006,12,11,18,59,9.60
2006,12,11,19,00,9.50
2006,12,11,19,01,9.50
2006,12,11,19,02,9.40
2006,12,11,19,03,9.40
2006,12,11,19,04,9.30